Weather History for Athens, GA

Change the Weather History Date:

Sunday, December 15, 2013

  Actual Average Record
Temperature  
Mean Temperature 41 °F 45 °F  
Max Temperature 50 °F 56 °F 76 °F (1929)
Min Temperature 32 °F 35 °F 14 °F (1901)
Degree Days  
Heating Degree Days 24 20  
Month to date heating degree days 236 273  
Since 1 July heating degree days 798 753  
Moisture  
Dew Point 39 °F    
Average Humidity 76    
Maximum Humidity 100    
Minimum Humidity 52    
Precipitation  
Precipitation 0.04 in 0.12 in 2.95 in (1884)
Month to date precipitation 2.53 1.86  
Year to date precipitation 54.80 44.46  
Snow  
Snow 0.00 in 0.00 in 0.00 in (2001)
Month to date snowfall 0.0 0.0  
Since 1 July snowfall 0.0 0.0  
Snow Depth 0.00 in    
Sea Level Pressure  
Sea Level Pressure 29.95 in    
Wind  
Wind Speed 10 mph (West)    
Max Wind Speed 18 mph    
Max Gust Speed 28 mph    
Visibility 7 miles    
Events Rain    
T = Trace of Precipitation, MM = Missing Value Source: NWS Daily Summary

Daily Weather History Graph

Daily Weather History Graph

Search for Another Location

Airport:

Trip Planner

Search our weather history database for the weather conditions in past years. The results will help you decide how hot, cold, wet, or windy it might be!

Date:

Astronomy

Dec. 15, 2013 Rise Set
Actual Time 7:31 AM EST 5:25 PM EST
Civil Twilight 7:03 AM EST 5:53 PM EST
Nautical Twilight 6:32 AM EST 6:24 PM EST
Astronomical Twilight 6:01 AM EST 6:55 PM EST
Moon 4:26 PM EST (12/15) 5:50 AM EST (12/15)
Length of Visible Light 10h 49m
Length of Day
9h 54m
Waxing Gibbous, 97% of the Moon is Illuminated
Dec 15
Waxing Gibbous
Dec 17
Full
Dec 25
Last Quarter
Jan 1
New
Jan 7
First Quarter

Hourly Weather History & Observations

Time (EST) Temp. Windchill Dew Point Humidity Pressure Visibility Wind Dir Wind Speed Gust Speed Precip Events Conditions
12:00 AM 46.4 °F 44.3 °F 46.4 °F 100% 29.85 in 1.2 mi South 4.6 mph - 0.00 in Rain Light Rain
12:36 AM 46.4 °F 45.2 °F 46.4 °F 100% 29.83 in 1.8 mi South 3.5 mph - 0.02 in Rain Light Rain
12:44 AM 46.4 °F 45.2 °F 46.4 °F 100% 29.82 in 2.0 mi South 3.5 mph - 0.02 in Rain Light Rain
12:51 AM 46.9 °F - 46.0 °F 97% 29.81 in 2.0 mi South 6.9 mph - 0.02 in Rain Light Rain
1:08 AM 46.4 °F 44.3 °F 46.4 °F 100% 29.83 in 1.2 mi NW 4.6 mph - 0.00 in Rain Light Rain
1:38 AM 48.2 °F - 46.4 °F 93% 29.84 in 2.0 mi West 3.5 mph - 0.01 in   Overcast
1:51 AM 48.0 °F - 46.9 °F 96% 29.83 in 2.5 mi West 3.5 mph - 0.01 in Rain Light Rain
2:06 AM 48.2 °F - 46.4 °F 93% 29.82 in 2.5 mi West 4.6 mph - 0.01 in Rain Light Rain
2:14 AM 48.2 °F - 46.4 °F 93% 29.82 in 4.0 mi WSW 3.5 mph - 0.01 in Rain Light Rain
2:27 AM 48.2 °F - 46.4 °F 93% 29.81 in 4.0 mi West 3.5 mph - 0.01 in   Mostly Cloudy
2:51 AM 48.0 °F - 46.9 °F 96% 29.85 in 4.0 mi West 4.6 mph - 0.01 in   Mostly Cloudy
3:03 AM 48.2 °F - 46.4 °F 93% 29.83 in 4.0 mi West 5.8 mph - N/A   Overcast
3:13 AM 48.2 °F - 46.4 °F 93% 29.83 in 6.0 mi West 5.8 mph - N/A   Overcast
3:51 AM 48.9 °F - 46.9 °F 93% 29.83 in 9.0 mi West 8.1 mph - N/A   Overcast
4:05 AM 48.2 °F - 46.4 °F 93% 29.84 in 9.0 mi West 9.2 mph - N/A   Overcast
4:12 AM 48.2 °F - 46.4 °F 93% 29.83 in 10.0 mi West 12.7 mph 18.4 mph N/A   Overcast
4:44 AM 48.2 °F - 44.6 °F 87% 29.84 in 10.0 mi West 6.9 mph - N/A   Overcast
4:51 AM 48.9 °F - 44.1 °F 83% 29.85 in 10.0 mi West 12.7 mph 20.7 mph N/A   Overcast
5:51 AM 46.0 °F 41.4 °F 39.9 °F 79% 29.88 in 10.0 mi WNW 9.2 mph - N/A   Overcast
6:12 AM 44.6 °F 37.4 °F 37.4 °F 76% 29.88 in 10.0 mi West 16.1 mph 25.3 mph N/A   Scattered Clouds
6:51 AM 43.0 °F 37.7 °F 37.0 °F 80% 29.92 in 10.0 mi West 9.2 mph - N/A   Mostly Cloudy
7:00 AM 42.8 °F 37.5 °F 37.4 °F 81% 29.91 in 10.0 mi West 9.2 mph - N/A   Overcast
7:51 AM 42.1 °F 36.1 °F 37.0 °F 82% 29.96 in 10.0 mi West 10.4 mph 18.4 mph N/A   Mostly Cloudy
8:51 AM 42.1 °F 35.7 °F 35.1 °F 76% 29.99 in 10.0 mi West 11.5 mph 19.6 mph N/A   Overcast
9:51 AM 44.1 °F 37.4 °F 35.1 °F 71% 30.02 in 10.0 mi WNW 13.8 mph 21.9 mph N/A   Partly Cloudy
10:51 AM 46.0 °F 40.2 °F 34.0 °F 63% 30.04 in 10.0 mi West 12.7 mph 21.9 mph N/A   Mostly Cloudy
11:01 AM 46.4 °F 40.7 °F 33.8 °F 62% 30.03 in 10.0 mi WNW 12.7 mph 20.7 mph N/A   Scattered Clouds
11:51 AM 46.9 °F - 34.0 °F 61% 30.02 in 10.0 mi West 12.7 mph 18.4 mph N/A   Scattered Clouds
12:51 PM 48.9 °F - 34.0 °F 56% 30.01 in 10.0 mi NW 12.7 mph 18.4 mph N/A   Clear
1:51 PM 50.0 °F - 33.1 °F 52% 30.01 in 10.0 mi WNW 11.5 mph 21.9 mph N/A   Clear
2:51 PM 48.9 °F - 32.0 °F 52% 30.01 in 10.0 mi West 11.5 mph 18.4 mph N/A   Clear
3:51 PM 46.9 °F - 32.0 °F 56% 30.03 in 10.0 mi WNW 11.5 mph - N/A   Clear
4:51 PM 43.0 °F 35.7 °F 30.9 °F 62% 30.07 in 9.0 mi WNW 15.0 mph 20.7 mph N/A   Clear
5:51 PM 39.9 °F 33.9 °F 30.0 °F 68% 30.10 in 10.0 mi West 9.2 mph - N/A   Clear
6:51 PM 37.9 °F 31.5 °F 28.9 °F 70% 30.12 in 9.0 mi WNW 9.2 mph - N/A   Clear
7:51 PM 36.0 °F 28.5 °F 28.9 °F 76% 30.14 in 8.0 mi WNW 10.4 mph - N/A   Clear
8:51 PM 35.1 °F 28.6 °F 28.0 °F 76% 30.16 in 8.0 mi WNW 8.1 mph - N/A   Clear
9:51 PM 34.0 °F 27.2 °F 28.0 °F 79% 30.17 in 8.0 mi NW 8.1 mph - N/A   Clear
10:51 PM 33.1 °F 27.7 °F 27.0 °F 78% 30.17 in 8.0 mi WNW 5.8 mph - N/A   Clear
11:51 PM 32.0 °F 25.6 °F 27.0 °F 82% 30.17 in 7.0 mi WNW 6.9 mph - N/A   Clear